Погода в Шадринске

Погода в Шадринске : погода сейчас, прогноз погоды и архив. Всё, что Вы хотите узнать о погоде в Шадринске!

Хотите узнать прогноз погоды в Шадринске? Тогда Вам сюда: Погода в Шадринске

Поиск расширенной информации на нашем сайте:

Другие новости

Новости СМИ2

Главная страница сайта

Новости сайта

03.07.2017

Напоминаем, что на нашем специализированном сайте Метеоцентр.Азия вы можете получить высокодетализированные автоматические прогнозы погоды по пунктам России, СНГ и мира в авиационном формате (включающие направление и скорость ветра, видимость, явления погоды, количество и форму облачности, нижнюю и верхнюю границу облачности).


Погода в Шадринске - сегодня

Время (UTC), дата Ветер
(°,м/с) 
Видим.   Явления Облачность Т
(°С)
Тd
(°С)
f(%) Тe
(°С)
Pmin
(гПа)
dP
(гПа)
Po
(мм)
O2
(г/м3)
Тmin Tmax R s Состояние
почвы
18 17.11.17 200 (Ю) 4000 м  слаб. снег  10/10 300 м 
[Frnb|Ns]
-1.8 -3.7 87 -3  1014.6  -0.6  752  306           
21 17.11.17 220 (ЮЗ) 4000 м  слаб. снег  10/10 300 м 
[Frnb|Ns]
-1.6 -3.7 86 -3  1014.3  -0.3  752  305           
00 18.11.17 260 (З) 4000 м  слаб. снег  10/10 300 м 
[Frnb|Ns]
-1.7 -3.6 87 -3  1015.2  0.9  753  306           
03 18.11.17 280 (З) 4000 м  слаб. снег  10/10 300 м 
[Frnb|Ns]
-2.2 -4.1 87 -4  1016.5  1.2  754  307  -2.4    0.2  равномерный
сухой снег
100% 
06 18.11.17 290 (З) 10 км  {снег}  8/6 600 м средняя, верхняя 
[Sc|Ac trans|Ci sp]
-1.1 -3.4 84 -2  1017.9  1.4  755  306  -2.8         
09 18.11.17 290 (З) 10 км  {снег}  10/8 600 м средняя, верхняя 
[Sc|Ac trans|Ci sp]
-0.2 -3.4 79 -2  1019.2  1.3  756  305           
12 18.11.17 270 (З) 4000 м  слаб. снег  10/6 300 м средняя 
[Frnb|As op]
-0.4 -3.8 78 -1  1020.5  1.3  757  306           
15 18.11.17 240 (ЮЗ) 10 км  {снег}  10/10 600 м кучево-дожд. 
[Cb cap]
-0.9 -5.7 70 -3  1020.9  0.4  757  307    -0.1  0.3     
18 18.11.17 220 (ЮЗ) 10 км  {снег}  10/10 600 м кучево-дожд. 
[Cb cap]
-0.8 -5.3 71 -3  1020.4  -0.5  757  306           
21 18.11.17 220 (ЮЗ) 10 км  в посл. час снег  10/10 300 м 
[Frnb|Ns]
-1 -3.5 83 -4  1020.7  0.2  757  307           
00 19.11.17 230 (ЮЗ) 4700 м  {снег}  10/10 50 м 
[Frnb|Ns]
-0.7 -3.4 82 -3  1021.5  0.8  758  306           
03 19.11.17 240 (ЮЗ) 10 км    10/10 600 м кучево-дожд. 
[Cb cap]
+0 -3.2 79 -2  1023  1.5  759  306  -1    0.0  равномерный
сухой снег
100% 
06 19.11.17 250 (З) 10 км    9/9 600 м кучево-дожд. 
[Cb cap]
+1.3 -2.5 76 1024.9  1.9  760  305           
09 19.11.17 270 (З) 10 км    10/10 600 м кучево-дожд. 
[Cb cap]
+2 -4.6 62 1026.3  1.3  761  305           
12 19.11.17 220 (ЮЗ) 10 км    10/10 600 м кучево-дожд. 
[Cb cap]
+1.5 -3.5 69 1027.8  1.5  762  306           
15 19.11.17 220 (ЮЗ) 10 км    10/10 600 м кучево-дожд. 
[Cb cap]
+1.4 -2.6 75 1028.4  0.6  763  306    +2.2       
18 19.11.17 210 (ЮЗ) 10 км    10/10 600 м кучево-дожд. 
[Cb cap]
+1 -2.5 77 1028  -0.4  763  306           
21 19.11.17 230 (ЮЗ) 10 км    9/8 600 м кучево-дожд., верхняя 
[Cb cap|Ci sp]
+0.6 -3 77 -1  1028.3  0.2  763  307           
00 20.11.17 240 (ЮЗ) 10 км    8/8 600 м кучево-дожд. 
[Cb cap]
-0.4 -2.3 87 -1  1028.3  763  308           
03 20.11.17 210 (ЮЗ) 10 км    9/8 600 м кучево-дожд., верхняя 
[Cb cap|Ci sp]
-1.2 -3 88 -3  1028.1  -0.2  763  309  -1.2      <0.5  равномерный
сухой снег
100% 
06 20.11.17 210 (ЮЗ) 10 км    8/3 600 м верхняя 
[Sc|Ci sp]
-2 -4.6 82 -3  1028.2  0.1  763  310  -2.3         
09 20.11.17 200 (Ю) 10 км    6/4 600 м верхняя 
[Sc|Ci sp]
-0.1 -4.5 72 -2  1027.8  -0.4  762  308           
12 20.11.17 210 (ЮЗ) 10 км    9/9 600 м 
[Sc]
-0.4 -4.7 73 -1  1027.5  -0.3  762  308           
15 20.11.17 200 (Ю) 10 км    4/3 600 м верхняя 
[Sc|Ci sp]
-1.7 -4.4 82 -3  1027.2  -0.3  762  309    +0       
18 20.11.17 210 (ЮЗ) 10 км    8/8 600 м 
[Sc]
-1.4 -3.7 84 -2  1026.9  -0.3  762  309           
Время (UTC), дата Ветер
(°,м/с) 
Видим.   Явления Облачность Т
(°С)
Тd
(°С)
f(%) Тe
(°С)
Pmin
(гПа)
dP
(гПа)
Po
(мм)
O2
(г/м3)
Тmin Tmax R s Состояние
почвы

Для получения пояснительной информации подведите курсор к названию столбца.

ПОГОДА в Шадринске - архив

Всё, что Вы хотите узнать о погоде в Шадринске - удобно и подробно!

Выберите нужную дату (начиная с 1 января 2015* года) и нажмите кнопку "Найти".
Будут отображены архивные сводки погоды по пункту Шадринск, начиная с указанной даты.


Отображать данные в формате CSV (для использования в таблицах Excel)


Внимание! Наш архив погоды предназначен исключительно для личного некоммерческого использования в познавательных целях. Если Вам необходимы официальные справки о состоянии погоды (для производственных, юридических, коммерческих и т.п. целей), обращайтесь в органы Росгидромета.

*Примечание: данная дата относится к архиву по метеостанциям СССР (Россия, СНГ, Балтия).
Архив по метеостанциям Зарубежной Европы и Азии (кроме Китая) хранится 10 дней, по другим регионам земного шара (Китай, Африка, Америка, Австралия, Океания) - 1 день.

Шадринск - район местоположения метеостанции


Название, широта, долгота, высота метеостанции:
Шадринск 56.1°ш. 63.6°д. 89 м над ур. моря [Российская Федерация]

Дополнительная информация

В oтличие oт бoльшинства пoгoдных сайтoв мы публикуем пoдрoбную метеoинфoрмацию в детальнoм прoфессиoнальнoм фoрмате.

Характеристики температуры и влажнoсти вoздуха измеряются на высoте 2 м в тени вдали oт зданий и деревьев.
Скoрoсть ветра измеряется на высoте 10 м (на урoвне рoста челoвека скoрoсть ветра ниже в 1.5-2 раза). Если метеoстанция нахoдится в гoрoде или в лесу, тo скoрoсть ветра занижена на 2-4 м/с пo сравнению с oткрытым местoм. Скoрoсть ветра над акватoриями крупных рек и oзёр, а также на вершинах хoлмoв на 2-5 м/с выше, чем в oбычных услoвиях.
Атмoсфернoе давление в разных тoчках местнoсти мoжет значительнo oтличаться oт давления на метеoстанции, в зависимoсти oт услoвий рельефа (при пoдъёме на 10 м давление пoнижается примернo на 1 мм рт.ст.).